Regional Weather Roundup
Issued by NWS

Home | Current Version | Previous Version | Text Only | Print | Product List | Glossary On
Versions: 1 2 3 4 5 6 7 8 9 10 11 12 13 14 15 16 17 18 19 20 21 22 23 24 25 26 27 28 29 30 31 32 33 34 35 36 37 38 39 40 41 42 43 44 45 46 47 48 49 50
000
ASUS44 KEWX 280102
RWRTX
SOUTH TEXAS REGIONAL WEATHER ROUNDUP
NATIONAL WEATHER SERVICE AUSTIN/SAN ANTONIO TX
700 PM CST TUE JAN 27 2015

NOTE: "FAIR" INDICATED FEW OR NO CLOUDS BELOW 12,000 FEET WITH NO
SIGNIFICANT WEATHER AND/OR OBSTRUCTIONS TO VISIBILITY.

* - THESE STATIONS ARE NOT NWS OR FAA STATIONS...AND ARE NOT SUBJECT
    TO NWS AND FAA QUALITY CONTROL.

TXZ171-172-183>190-280200-
TEXAS HILL COUNTRY AND EDWARDS PLATEAU

CITY           SKY/WX    TMP DP  RH WIND       PRES   REMARKS
JUNCTION       PTCLDY    60  39  45 CALM      30.14R
*LLANO         CLEAR     64  43  45 CALM      30.15S
BURNET         CLEAR     62  43  49 CALM      30.15R
*HORSESHOE BAY CLEAR     57  43  58 S3        30.13R
*KERRVILLE     CLEAR     66  36  32 CALM      30.16R
*FREDERICKSBRG CLEAR     60  39  45 CALM      30.14R
*ROCKSPRINGS   PTCLDY    68  32  26 S5        30.18S
*BOERNE STAGE  CLEAR     64  32  29 S3        30.15R
*CASTROVILLE   CLEAR     68  39  34 SW3       30.14R
HONDO          CLEAR     64  39  39 S5        30.15R
*UVALDE        CLEAR     68  40  35 SE5       30.14R
DEL RIO        CLEAR     71  37  28 SE5       30.11S
LAUGHLIN AFB   CLEAR     71  38  30 S6        30.12S
CARRIZO SPRGS  CLEAR     63  43  48 S3        30.11S
$$

TXZ173-191>194-202-209-217>225-228-280200-
CENTRAL AND SOUTH CENTRAL TEXAS

CITY           SKY/WX    TMP DP  RH WIND       PRES   REMARKS
GEORGETOWN     NOT AVBL
AUSTIN/BERGSTM PTCLDY    57  47  69 CALM      30.12R
AUSTIN/MABRY   CLEAR     68  44  42 CALM      30.13R
*AUSTIN/EXEC   CLEAR     68  45  42 E3        30.13R
*LAGO VISTA    CLEAR     67  41  38 E6        30.14R
SAN MARCOS     CLEAR     63  48  59 E5        30.13R
NEW BRAUNFELS  CLEAR     65  43  44 SE5       30.11R
RANDOLPH AFB   CLEAR     66  35  32 CALM      30.13R
PT SAN ANTONIO CLEAR     62  40  44 CALM      30.12R
SAN ANTONIO    PTCLDY    73  36  25 S5        30.13R
STINSON FIELD  CLEAR     65  40  39 CALM      30.11R
*PLEASANTON    CLEAR     62  40  45 CALM      30.13R
*LA GRANGE     CLEAR     62  50  63 CALM      30.10S
*GIDDINGS      CLEAR     62  46  55 CALM      30.16R
*GONZALES      CLEAR     71  44  38 SE3       30.11R
$$

TXZ163>164-176>182-195>201-210>213-226-227-235-280200-
SOUTHEAST TEXAS

CITY           SKY/WX    TMP DP  RH WIND       PRES   REMARKS
COLLEGE STN    CLEAR     63  47  55 CALM      30.12R
*BRYAN         CLEAR     65  42  43 SE3       30.13R
*CALDWELL      CLEAR     66  39  37 CALM      30.15R
*CROCKETT      CLEAR     59  52  77 CALM      30.15R
*BRENHAM       CLEAR     67  46  45 CALM      30.14R
HUNTSVILLE     CLEAR     63  45  51 CALM      30.12R
CONROE         CLEAR     56  48  74 N3        30.13R
HOUSTON BUSH   PTCLDY    59  48  67 CALM      30.12R
HOUSTON HOBBY  PTCLDY    67  45  45 E6        30.11S
*HOUSTON SW AP CLEAR     64  48  56 CALM      30.12S
PEARLAND       CLEAR     65  47  52 E3        30.13S
HOUSTON HOOKS  CLEAR     62  46  55 CALM      30.12R
ELLINGTON FLD  NOT AVBL
SUGAR LAND     CLEAR     62  45  53 CALM      30.11S
*HOUSTON EXEC    N/A    N/A N/A N/A MISG        N/A
*CLEVELAND MUN   N/A     55  52  88 CALM      30.13R
*WHARTON       CLEAR     64  50  58 CALM      30.12S
*COLUMBUS      FAIR      61  49  63 CALM      30.11R
$$

TXZ214>216-236>238-280200-
THE UPPER TEXAS COAST

CITY           SKY/WX    TMP DP  RH WIND       PRES   REMARKS
*ORANGE        CLEAR     59  50  72 S6        30.15R
PORT ARTHUR    CLEAR     58  46  64 S6        30.13R
GALVESTON      CLEAR     58  56  93 SE7       30.13R
ANGLETON       PTCLDY    62  47  57 CALM      30.12R
*BAY CITY      CLEAR     65  48  53 CALM      30.12R
PALACIOS       CLEAR     62  52  69 S7        30.12R
$$

TXZ229>234-239>247-280200-
TEXAS COASTAL BEND AND RIO GRANDE PLAINS

CITY           SKY/WX    TMP DP  RH WIND       PRES   REMARKS
VICTORIA       CLEAR     65  45  48 CALM      30.13R
*BEEVILLE      CLEAR     68  41  38 CALM      30.12S
ROCKPORT       CLEAR     62  47  57 S6        30.12S
*PORT ARANSAS  CLEAR     60  52  73 S7        30.13R
*PORT LAVACA   CLEAR     66  51  59 S3        30.13R
*INGLESIDE     CLEAR     63  45  50 S8        30.12S
CORPUS CHRISTI PTCLDY    64  47  53 SE9       30.13R
CORPUS NAS     PTCLDY    62  48  60 S8        30.13R
*ROBSTOWN      NOT AVBL
ALICE          CLEAR     66  40  38 S6        30.12R
KINGSVILLE NAS PTCLDY    64  47  53 SE7       30.13R
COTULLA        PTCLDY    72  39  30 CALM      30.12R
*FAITH RANCH   CLEAR     72  36  26 CALM      30.13R
LAREDO         CLEAR     70  39  32 CALM      30.15R
$$

TXZ248>255-280200-
DEEP SOUTH TEXAS

CITY           SKY/WX    TMP DP  RH WIND       PRES   REMARKS
BROWNSVILLE    CLEAR     64  47  53 S8        30.16S
PORT ISABEL    CLEAR     64  52  64 S6        30.15S
*SOUTH PADRE   CLEAR    N/A N/A N/A W6        30.16S
HARLINGEN      CLEAR     66  43  43 S7        30.14S
*HEBBRONVILLE  CLEAR     73  36  25 S5        30.14S
MCALLEN        CLEAR     67  42  40 SE5       30.15R
*WESLACO       CLEAR     70  39  33 SE5       30.15R
FALFURRIAS     CLEAR     71  35  27 SE6       30.13R
EDINBURG       CLEAR     71  38  29 CALM      30.15R
*ZAPATA        CLEAR     67  39  35 SE3       30.12S
$$

TXZ213>215-236>238-242>244-246-247-251-254-255-280200-
CMAN STATIONS

STATION/POSITION TIME  TEMP    WIND        PRES    WAVE
                       AIR SEA DIR/SP/G            HT/PER
                 (UTC) (F)     (DEG/KT/KT) (MB)    (FT/S)
SABINE PASS      0000   58 54  220/  3/  5 1020.4
SEA RIM ST PARK  0000   59     200/  5/  5 1020.6
NORTH JETTY/GLS  0000   60 57  210/  7/  7   N/A
EAGLE POINT      0000   61 58  200/  4/  5 1020.0
MORGANS POINT    0000   64     180/  5/  7 1019.8
MISSION/ARANSAS  0000   65     VRB  7      1020.0
PORT O`CONNOR    0000          210/  6/  8   N/A
PORT ARANSAS     0000   63 60  160/  8/  9 1021.1
MALAQUITE BEACH  0000   62 62  160/  7/  8 1019.7
BAFFIN BAY       0000   64     160/  8/ 10 1020.3
PORT ISABEL      0000   67 59  150/  6/  9 1021.2
$$

GMZ080-GMZ150>470-280200-
OFFSHORE BUOY REPORTS

STATION/POSITION TIME  TEMP    WIND        PRES    WAVE
                       AIR SEA DIR/SP/G            HT/PER
                 (UTC) (F)     (DEG/KT/KT) (MB)    (FT/S)
20 E GALVESTON   0100   58 57  180/  4/  6 1020.1    1/ 4
90 E PT ARANSAS  0100   68 68  230/ 10/ 10 1020.9    2/ 5
35 NE PT MANSFLD 0000   68 67  180/  8/  8 1020.5    0
200 E PT ISABEL  0000   70 72  310/ 12/ 14 1021.5    3/ 5
$$



USA.gov is the U.S. government's official web portal to all federal, state and local government web resources and services.